Regional Weather Roundup
Issued by NWS Sioux Falls, SD

Home | Current Version | Previous Version | Text Only | Print | Product List | Glossary On
Versions: 1 2 3 4 5 6 7 8 9 10 11 12 13 14 15 16 17 18 19 20 21 22 23 24 25 26 27 28 29 30 31 32 33 34 35 36 37 38 39 40 41 42 43 44 45 46 47 48 49 50
000
ASUS43 KFSD 180910
RWRFSD

WEATHER ROUNDUP FOR SE SOUTH DAKOTA/SW MINNESOTA/NW IOWA
NATIONAL WEATHER SERVICE SIOUX FALLS SD
300 AM CST SAT NOV 18 2017

NOTE: "FAIR" INDICATES FEW OR NO CLOUDS BELOW 12,000 FEET WITH NO
SIGNIFICANT WEATHER AND OR OBSTRUCTIONS TO VISIBILITY.


SDZ038>040-050-052>070-181000-
SOUTHEAST SOUTH DAKOTA

CITY           SKY/WX    TMP DP  RH WIND       PRES   REMARKS
BROOKINGS      CLOUDY    30  25  81 N7        29.79R WCI  23
CHAMBERLAIN    CLOUDY    37  32  83 NW7       29.85R
HURON          CLOUDY    29  21  72 NW8       29.84R WCI  21
MADISON        CLOUDY    32  32 100 NW13      29.78R WCI  22
MITCHELL       CLOUDY    33  24  69 N12       29.83R WCI  24
SIOUX FALLS    CLOUDY    35  27  72 N13       29.77R WCI  26
WINNER         FAIR      38  35  89 W9        29.87R
YANKTON        CLOUDY    36  31  82 NW14      29.79R
$$

MNZ071-072-080-081-089-090-097-098-181000-
SOUTHWEST MINNESOTA

CITY           SKY/WX    TMP DP  RH WIND       PRES   REMARKS
FAIRMONT       CLOUDY    34  32  92 N20       29.71R WCI  23
JACKSON        CLOUDY    32  28  86 N10G17    29.72S WCI  24
LUVERNE        CLOUDY    32  27  80 N9        29.76R WCI  24
MARSHALL       CLOUDY    29  23  78 N20       29.79R WCI  16
MONTEVIDEO     CLOUDY    27  21  80 N12       29.80R WCI  16
PIPESTONE      CLOUDY    30  25  80 N6        29.75R WCI  24
REDWOOD FALLS  CLOUDY    31  23  72 NW12      29.76R WCI  22
WINDOM           N/A     30  18  59 NW18      29.74R WCI  18
WORTHINGTON    CLOUDY    30  26  85 N17       29.73R WCI  18
$$

IAZ001>003-012>014-020>022-031-032-NEZ013-014-SDZ071-181000-
NORTHWEST IOWA

CITY           SKY/WX    TMP DP  RH WIND       PRES   REMARKS
CHEROKEE       CLOUDY    36  35  96 N12       29.70R
DENISON        CLOUDY    39  37  93 N18G28    29.65R
ESTHERVILLE    CLOUDY    34  33  96 N15       29.70R WCI  24
LE MARS        CLOUDY    36  34  93 MISG      29.74R
ORANGE CITY    CLOUDY    36  32  87 N12G18    29.74R
SHELDON        CLOUDY    32  30  93 N14       29.72R WCI  22
SIOUX CITY     MOCLDY    37  35  92 N13       29.73R
SPENCER        CLOUDY    35  31  85 N15       29.70R WCI  25
STORM LAKE     CLOUDY    36  34  93 N16       29.66S
$$

ABBREVIATIONS USED IN REMARKS
   TC - TEMPERATURE IN CELSIUS
  WCI - WIND CHILL INDEX
   HX - HEAT INDEX
  VSB - VISIBILITY





USA.gov is the U.S. government's official web portal to all federal, state and local government web resources and services.